Location: Unspecified
(51.0950°N, 12.9690°E)
Time: 15:58:11
(UTC+00:00)

Cosmos 839 Rocket - Pass Details

Date: 28 October 2021
Orbit: 964 x 2088 km, 65.9° (Epoch: 03 December)

Event Time Altitude Azimuth Distance (km) Brightness Sun altitude
Rises 16:06:39 0° 319° (NW) 4,543 7.8 -3.4°
Reaches altitude 10° 16:09:50 10° 320° (NW) 3,401 7.2 -3.9°
Maximum altitude 16:17:49 83° 49° (NE) 1,148 4.4 -5.1°
Drops below altitude 10° 16:24:17 10° 138° (SE) 2,792 6.1 -6.1°
Sets 16:26:41 0° 139° (SE) 3,686 6.7 -6.5°
